Wind_Speed
87 87 88 89 90 92 93 94 96 97 99 100 101 102 103 103 104 104 104 103 102 101 100 99 98 98 98 97 97 97 97 96 96 95 95 94 94 93 93 93 92 92 92 91 91 91 91 90 90 90 90 89 90 90 90 90 90 90 91 92 93 93 93 93 93 94 94 94 94 94 93 93 93 92 92 91 90 89 88 86 85 83 82 80 79 77
90 91 91 92 93 95 96 97 98 100 101 103 104 104 105 105 106 106 106 105 104 103 102 101 100 100 99 99 98 98 97 97 96 95 95 94 93 92 92 91 91 90 90 90 89 89 89 89 88 88 88 88 88 88 88 88 88 89 89 90 91 91 91 92 92 92 92 92 92 92 91 91 90 90 89 88 87 85 84 83 81 80 78 77 76 75
94 94 95 96 97 98 99 100 102 103 104 105 106 107 107 108 108 107 107 106 105 104 103 102 101 100 99 98 97 97 96 95 94 93 92 91 90 90 89 88 87 87 86 86 86 85 85 85 85 84 84 84 84 84 85 85 85 85 85 86 87 87 88 88 88 88 88 88 88 88 87 87 86 85 84 83 82 81 80 79 77 76 75 74 74 73
97 98 99 99 100 101 102 103 105 106 107 108 108 109 109 109 109 108 107 106 105 103 102 101 99 98 97 96 95 94 93 92 91 90 89 88 87 86 85 84 83 83 82 82 81 81 80 80 80 80 80 80 79 79 80 80 80 80 80 81 81 82 82 82 83 83 83 82 82 82 82 81 80 80 79 78 77 76 75 75 74 73 72 72 72 71
100 101 101 102 103 104 105 106 107 108 109 110 110 110 110 110 109 108 107 105 104 102 101 99 97 96 94 93 92 91 90 89 88 87 86 84 83 82 81 81 80 79 78 77 77 76 76 76 75 75 75 75 75 74 74 74 74 74 75 75 75 75 76 76 76 76 76 76 76 76 75 75 74 74 73 73 72 72 71 71 71 70 70 70 69 69
103 104 104 105 106 107 108 109 109 110 111 111 111 111 111 110 109 107 106 104 102 101 99 97 95 93 92 90 89 88 87 86 85 84 83 82 81 80 79 78 77 76 75 74 74 73 72 72 72 71 71 71 71 70 70 70 70 70 69 69 69 70 70 70 70 70 70 69 69 69 69 69 69 69 69 68 68 68 68 68 68 68 68 67 67 66
106 107 108 108 109 110 111 111 111 112 112 112 112 111 110 109 108 107 105 103 101 99 97 95 93 91 90 88 87 86 85 84 83 82 81 80 79 79 78 77 76 75 74 73 72 72 71 70 70 70 69 69 68 68 68 67 67 66 66 66 66 65 65 65 65 65 65 64 64 64 64 64 64 64 64 64 64 64 64 64 65 65 65 64 64 63
110 110 111 112 112 113 113 113 113 113 113 112 112 111 110 109 107 105 103 101 98 97 95 93 92 90 89 87 86 85 84 83 82 82 81 80 79 78 78 77 76 76 75 74 73 72 72 71 70 70 69 69 68 68 67 66 66 65 65 64 64 63 63 63 62 62 61 61 61 61 60 60 60 60 61 61 61 61 61 61 61 62 61 61 61 60
113 114 114 114 115 115 115 115 114 113 112 112 111 110 109 108 106 104 101 99 97 95 94 92 91 90 89 87 86 85 84 83 83 82 82 81 80 80 79 79 78 77 77 76 75 74 74 73 72 72 71 70 70 69 68 67 66 66 65 64 64 63 62 62 61 60 60 59 59 58 58 58 58 58 58 58 58 58 58 58 58 58 58 58 57 57
116 116 117 116 116 116 117 116 115 113 111 111 109 108 107 106 104 102 100 98 96 94 93 92 91 90 89 88 87 86 86 85 84 84 83 83 82 82 81 81 80 80 79 79 78 77 76 76 75 74 74 73 72 71 70 69 69 68 67 66 65 64 63 63 62 61 60 59 58 58 57 57 57 56 56 56 56 56 56 56 55 55 55 55 54 53
118 118 119 118 117 116 116 115 114 112 110 109 108 106 104 102 101 100 99 97 96 95 94 93 92 91 91 90 89 88 88 87 87 86 86 85 85 84 84 83 83 82 82 81 81 80 79 79 78 77 76 76 75 74 73 72 71 71 70 69 68 67 66 64 63 62 61 60 59 59 58 57 57 56 56 55 55 54 54 54 54 53 53 53 52 52
120 120 119 119 118 117 115 114 112 110 109 108 106 105 102 100 99 98 98 97 96 96 95 95 94 93 93 92 92 91 91 90 90 89 89 88 87 87 87 86 85 85 84 84 83 83 82 82 81 80 79 79 78 77 76 75 75 74 73 72 71 70 69 67 66 65 64 62 61 60 59 59 58 57 57 56 55 55 54 54 53 53 52 52 52 51
121 120 119 118 117 116 114 112 111 109 107 106 104 103 102 100 99 98 98 97 97 97 97 97 97 96 96 95 95 94 94 93 93 92 92 91 91 90 90 89 88 88 87 87 86 85 85 84 84 83 82 82 81 80 79 78 78 77 76 75 74 73 72 70 69 68 66 65 64 63 62 61 60 59 59 58 57 56 55 55 54 54 53 53 52 52
120 119 117 116 115 113 111 110 108 107 106 104 103 102 102 101 100 100 100 99 99 98 98 99 99 99 99 98 98 97 97 96 96 95 95 94 94 93 93 92 91 91 90 89 89 88 87 87 86 86 85 85 84 83 82 81 80 80 79 78 77 76 75 74 72 71 70 68 67 66 65 64 63 62 61 60 59 58 58 57 56 55 55 54 54 53
117 116 114 113 111 109 108 107 106 106 105 105 104 104 104 103 103 102 102 102 101 101 100 101 101 101 101 101 101 100 100 99 99 98 98 97 97 96 95 95 94 94 93 92 91 91 90 89 89 89 88 87 87 86 85 84 83 82 82 81 80 79 78 77 76 74 73 71 70 69 67 67 66 65 64 63 62 61 60 59 58 58 57 56 56 55
113 112 110 109 108 107 107 107 107 107 107 107 107 107 106 106 106 105 105 104 104 103 103 103 104 104 104 103 103 103 102 102 102 101 101 100 100 99 98 98 98 97 96 95 94 93 93 92 91 91 90 90 89 88 88 87 86 85 84 83 83 82 81 80 79 77 76 74 73 72 70 69 68 67 67 66 65 64 63 62 61 60 59 59 58 57
110 109 109 108 108 109 109 109 109 109 110 109 109 109 109 109 108 108 107 107 107 106 106 106 106 106 106 106 106 105 105 105 105 104 103 103 102 101 100 100 100 100 98 98 97 96 95 95 94 93 93 92 91 91 90 89 89 88 87 86 85 84 83 82 81 80 79 77 76 75 73 72 71 70 69 68 67 66 65 64 64 63 62 61 60 60
110 110 110 110 111 111 111 111 111 112 112 112 111 111 111 110 110 110 110 110 109 109 109 108 108 107 108 108 108 108 107 108 108 107 106 106 105 103 102 102 102 102 101 100 99 99 98 97 96 96 95 94 94 93 92 92 91 90 90 88 87 86 86 85 84 83 82 80 79 78 76 75 74 73 72 71 70 69 68 67 66 65 64 63 62 62
112 112 112 113 113 113 113 113 113 113 113 113 113 113 113 113 112 112 112 112 112 111 111 111 110 110 109 110 110 109 109 110 111 111 110 109 107 106 105 104 104 104 103 103 102 101 100 100 99 98 97 97 96 95 94 94 93 92 92 91 90 89 88 87 86 85 84 83 82 80 79 78 76 75 74 73 72 71 70 69 68 67 66 65 64 64
114 114 114 114 114 114 114 114 114 114 115 115 115 115 115 115 115 115 115 114 114 114 113 113 112 112 111 111 111 111 111 111 113 113 113 112 111 109 107 107 107 106 106 105 104 103 103 102 102 101 100 99 98 97 97 96 95 95 94 93 92 91 90 89 88 87 86 85 84 83 82 80 79 78 76 75 74 73 72 71 70 69 68 67 66 66
115 115 115 115 115 116 116 116 116 116 116 117 117 117 117 117 117 117 117 116 116 116 115 115 115 114 113 113 113 112 112 112 114 115 115 115 114 112 110 109 109 109 108 107 106 105 105 105 104 103 102 102 101 100 99 98 97 97 96 95 94 93 92 91 90 89 88 87 86 85 84 83 81 80 79 77 76 75 74 73 72 71 70 69 68 67
116 116 116 116 116 117 118 118 118 118 118 119 119 120 120 120 120 120 119 119 118 118 118 117 116 116 115 115 115 114 114 114 115 116 116 117 117 116 113 112 111 111 111 110 109 108 107 107 106 106 105 104 103 102 101 101 100 99 98 97 96 95 94 93 92 91 90 89 88 87 86 85 83 82 81 80 78 77 76 75 74 73 72 71 70 69
117 117 117 118 118 119 119 120 120 120 120 121 121 122 122 122 122 122 121 121 120 120 120 119 118 117 117 117 117 116 116 116 116 116 117 118 118 118 116 114 114 113 113 112 111 110 109 109 109 108 107 106 106 105 104 103 102 101 100 99 98 97 96 95 94 93 92 91 90 89 87 86 85 84 83 82 80 79 78 77 76 75 74 73 72 70
120 120 120 120 120 121 121 121 122 122 122 123 123 123 123 123 123 123 123 122 122 121 121 121 120 120 119 119 118 118 118 117 117 118 118 119 119 119 118 117 116 116 115 113 112 112 112 112 111 110 109 109 108 107 106 105 104 103 102 101 100 99 98 97 96 95 94 93 92 90 89 88 87 86 85 83 82 81 80 79 78 77 75 74 73 72
122 122 122 122 123 123 123 124 124 124 124 124 124 124 124 124 124 124 123 123 123 122 122 122 122 122 121 120 120 120 119 119 119 119 119 120 120 120 119 119 118 118 117 115 114 114 114 114 113 112 111 111 110 109 108 107 106 105 104 103 102 101 100 99 98 97 96 94 93 92 91 90 89 87 86 85 84 83 82 81 79 78 77 76 75 73
125 125 125 125 125 125 126 126 126 126 126 126 126 126 126 125 125 124 124 123 123 123 123 123 123 122 121 121 120 121 120 120 120 120 120 121 121 121 120 119 119 118 118 117 116 116 116 116 115 114 113 112 111 110 110 109 108 107 106 105 104 103 102 101 100 99 97 96 95 94 92 91 90 89 88 87 86 84 83 82 81 80 79 77 76 75
127 127 127 127 127 127 127 127 127 127 127 127 127 127 126 126 126 125 125 124 123 122 122 123 123 122 121 121 120 121 121 121 121 121 121 121 121 122 121 120 119 119 119 119 119 118 118 117 117 116 115 114 113 112 111 110 110 109 108 107 106 105 104 103 102 100 99 98 97 95 94 93 92 91 89 88 87 86 85 83 82 81 80 79 77 76
128 128 128 128 129 129 129 128 128 128 128 128 128 128 127 127 127 126 125 124 122 122 122 122 122 121 120 120 120 120 120 120 121 121 121 121 122 121 121 119 119 118 119 120 120 120 119 118 117 117 116 115 114 113 112 111 111 110 109 108 108 107 106 104 103 102 101 99 98 97 96 94 93 92 91 90 89 87 86 85 84 82 81 80 78 77
129 129 129 129 130 130 130 130 129 129 129 129 129 128 128 127 127 126 125 123 122 122 121 121 120 119 118 118 117 117 117 118 119 119 119 120 121 120 119 118 117 118 118 120 121 121 120 119 118 117 116 115 114 113 113 112 112 111 110 110 109 108 107 106 105 104 102 101 99 98 97 96 94 93 92 91 90 89 88 86 85 84 82 81 80 78
130 130 130 130 131 131 130 130 130 130 129 129 129 128 127 127 126 125 124 122 121 121 120 118 117 116 115 114 114 114 114 114 114 115 116 118 119 118 116 116 115 116 116 118 119 120 120 118 117 116 116 115 115 114 113 113 112 112 111 110 110 109 108 107 106 105 104 102 101 100 98 97 96 94 93 93 91 90 89 87 86 85 83 82 81 79
130 131 131 131 131 131 131 130 130 129 129 128 127 127 126 125 124 122 121 120 119 118 117 115 114 112 111 110 109 109 109 108 108 109 111 114 115 114 113 112 112 113 113 115 116 118 118 117 116 115 114 114 114 114 113 113 112 112 111 111 110 109 109 108 107 106 105 103 102 101 99 98 97 95 94 93 92 91 90 89 87 86 84 83 82 80
130 131 131 131 131 130 130 129 128 128 127 126 124 124 122 121 120 119 118 116 115 114 113 112 110 108 107 105 104 104 103 103 103 103 106 109 110 109 108 108 108 109 109 110 112 113 115 115 114 112 112 113 113 113 112 112 111 111 111 110 110 110 109 108 107 107 105 104 103 102 101 99 98 96 95 94 93 92 91 90 88 87 85 84 83 81
129 129 128 128 128 127 126 126 125 124 123 122 121 120 118 117 116 115 113 112 111 109 108 107 106 104 103 101 100 99 98 97 98 98 100 103 104 104 103 103 103 104 104 105 106 108 110 111 110 109 109 110 110 110 110 110 110 110 110 109 110 109 109 108 108 107 106 105 104 103 101 100 99 97 96 95 94 93 92 91 89 88 87 85 84 82
125 125 125 124 123 123 122 121 120 119 118 117 116 115 114 113 112 111 109 108 106 105 104 103 102 100 99 97 96 94 93 93 93 93 95 97 98 99 99 98 98 99 99 100 101 103 104 105 106 106 106 106 107 107 107 107 107 107 107 108 108 108 108 108 107 107 106 105 104 103 102 101 99 98 96 95 94 94 92 91 90 89 88 86 85 83
121 120 120 119 119 118 117 116 115 114 113 112 111 110 109 108 107 106 105 104 103 101 99 98 97 96 95 94 92 91 89 88 88 89 90 92 93 94 94 94 94 94 94 95 96 97 99 100 100 101 101 102 103 103 103 103 104 104 105 105 106 107 107 107 107 107 106 105 104 104 103 101 100 98 97 96 95 94 93 92 91 89 88 87 86 84
116 116 115 115 114 113 113 112 111 110 109 108 107 106 104 104 103 102 101 100 99 97 96 94 93 91 90 89 88 87 86 85 85 85 86 87 88 89 89 89 89 89 89 90 91 92 94 95 95 95 96 97 98 99 100 100 100 101 102 103 104 105 105 106 106 106 105 105 104 104 103 101 100 99 97 96 95 94 93 92 91 90 89 88 86 85
112 112 111 111 110 109 108 107 106 105 104 103 102 101 100 99 98 97 96 96 95 94 92 91 89 87 86 85 84 84 83 82 82 82 82 83 83 84 85 85 85 85 85 86 87 87 88 89 89 90 90 92 94 95 96 96 97 98 99 100 101 102 103 104 104 104 104 104 104 103 102 101 100 99 98 97 96 95 94 93 92 91 89 88 87 85
109 108 107 106 106 105 104 103 102 101 100 98 97 96 95 94 94 93 92 91 91 90 88 87 85 84 82 81 81 80 79 79 79 79 79 79 80 81 81 81 81 81 82 82 83 83 84 84 85 85 86 87 89 91 92 93 94 95 96 97 98 99 100 101 102 102 103 103 102 102 101 101 100 99 98 97 96 95 94 93 92 91 90 88 87 85
104 104 103 102 101 101 100 98 97 96 95 94 93 92 91 90 90 89 88 88 87 86 85 83 82 80 79 78 77 77 76 76 76 76 76 76 77 77 78 78 78 78 78 79 79 80 80 80 81 81 82 83 85 87 89 90 91 92 92 93 94 96 97 98 99 100 100 101 101 101 101 100 99 99 98 97 96 95 94 93 92 91 90 88 87 86
100 100 99 98 97 96 95 94 93 92 91 90 89 88 87 87 86 86 85 84 83 82 81 80 79 77 76 75 74 74 73 73 73 73 73 74 74 74 74 75 75 75 75 76 76 77 77 77 77 78 79 80 82 84 86 87 88 88 88 89 91 93 94 95 96 97 98 99 99 99 99 99 98 98 98 97 96 95 94 93 92 91 90 88 87 86
96 96 95 94 93 92 91 90 89 88 87 86 85 84 84 84 83 82 81 80 79 78 77 76 75 74 73 72 72 71 71 71 71 71 71 71 71 71 72 72 72 72 72 73 73 73 73 74 74 75 76 77 79 81 83 84 84 84 85 86 87 89 90 91 93 94 95 96 97 97 97 97 97 97 97 96 96 95 94 93 92 91 90 89 87 86
92 92 91 90 89 88 87 86 85 84 83 83 82 81 81 80 79 79 77 76 76 75 74 73 72 71 70 70 69 69 69 68 68 68 68 69 69 69 69 69 69 70 70 70 70 70 70 71 71 72 73 74 76 78 80 80 80 80 81 82 83 84 86 88 89 91 92 93 94 95 95 96 96 96 96 96 95 94 94 93 92 91 90 89 87 86
89 88 87 86 86 85 84 83 82 81 80 80 79 78 78 77 76 75 73 73 72 72 71 70 69 68 67 67 67 67 66 66 66 66 66 66 66 66 66 66 67 67 67 67 68 68 68 68 69 69 70 72 73 75 76 77 77 77 78 78 80 81 83 85 86 88 89 91 92 93 93 94 95 95 95 95 94 94 93 93 92 91 90 88 87 86
85 85 84 83 82 81 80 80 79 78 77 77 76 75 74 73 72 71 70 69 68 68 68 68 67 65 65 64 64 64 64 64 64 64 64 64 64 64 64 64 64 64 65 65 65 65 65 66 66 67 68 69 70 71 72 73 73 74 74 75 76 78 80 81 83 84 86 88 89 90 91 92 93 93 93 93 93 93 93 92 91 90 89 88 87 86
82 81 80 80 79 78 77 76 76 75 74 74 73 73 71 70 69 67 66 65 65 65 65 65 64 63 62 62 62 62 62 62 61 61 61 61 61 61 61 61 62 62 62 62 63 63 63 63 63 64 64 66 67 68 69 70 71 71 71 72 73 75 76 77 79 81 83 85 86 88 89 90 90 91 92 92 92 92 92 91 91 90 89 88 87 86
79 78 77 76 75 75 74 73 73 72 72 71 70 70 68 67 66 64 63 62 62 62 63 62 61 61 60 59 59 60 60 59 59 59 59 59 59 59 59 59 60 60 60 60 60 60 60 60 60 61 62 63 65 66 67 68 69 69 69 70 71 72 74 75 77 79 81 82 84 85 86 87 88 90 90 91 91 91 91 90 90 89 88 87 86 85
76 75 74 73 72 72 71 70 70 69 69 68 68 67 66 65 63 62 61 60 60 60 60 59 59 58 57 57 57 57 57 57 57 57 57 57 57 57 57 57 58 58 58 58 58 58 57 57 57 58 60 61 63 65 66 66 67 67 67 68 69 70 72 73 75 76 78 80 81 83 84 85 87 88 89 89 89 90 90 89 89 88 87 87 86 85
73 72 71 70 69 69 68 68 67 67 66 66 65 64 63 62 61 60 59 58 57 57 57 57 56 56 55 55 55 55 55 55 55 54 54 55 55 55 55 55 56 56 56 56 55 55 55 55 55 57 58 60 62 63 64 64 65 65 65 66 67 68 70 71 73 74 76 77 79 81 82 83 85 86 86 87 88 88 88 88 88 87 87 86 86 85
70 69 68 67 67 66 66 65 64 64 63 63 62 61 61 60 59 58 56 56 55 55 55 54 54 53 53 53 53 53 52 52 52 52 52 53 53 53 53 53 53 53 53 53 53 52 52 53 54 56 58 59 60 61 62 62 62 62 63 64 65 66 68 69 71 72 74 76 77 79 80 81 82 83 84 85 86 87 87 87 86 86 86 85 85 84
68 67 66 65 64 64 63 62 62 61 60 60 59 59 58 57 56 55 54 54 53 53 52 52 51 51 51 50 50 50 50 50 50 50 50 50 50 50 51 51 51 51 51 50 50 50 51 52 53 55 56 57 58 58 58 58 59 59 60 62 63 64 65 67 68 70 72 73 75 76 78 79 80 81 82 84 84 85 85 85 85 85 85 84 84 84
65 64 63 63 62 61 60 60 59 58 58 57 56 56 55 54 53 53 52 51 51 51 50 50 49 49 48 48 48 48 48 48 48 48 48 48 48 48 48 48 48 48 48 48 48 48 49 50 52 53 54 55 55 55 55 56 56 57 59 60 61 62 63 65 66 68 70 71 73 74 76 77 78 79 80 82 82 83 84 84 84 84 84 83 83 83
Wind_Direction
281 282 282 283 283 284 285 285 286 287 287 288 288 289 289 289 290 290 290 290 289 289 288 288 288 287 287 286 286 286 285 285 285 284 284 284 283 283 283 282 282 282 281 281 280 280 279 279 278 278 277 277 277 276 276 276 276 276 276 276 276 276 276 277 277 277 278 278 278 279 279 280 280 281 281 282 282 283 283 284 284 285 285 286 286 287
284 284 284 284 285 285 286 286 287 287 287 288 288 288 289 289 289 289 289 289 289 289 289 288 288 288 287 287 286 286 286 285 285 285 284 284 284 283 283 283 282 282 282 281 281 280 280 280 279 279 278 278 277 277 277 276 276 276 276 276 276 276 276 277 277 277 277 278 278 279 279 279 280 280 281 281 281 282 282 283 283 284 284 285 285 286
286 286 286 286 286 286 286 287 287 287 287 288 288 288 288 288 289 289 289 289 289 289 288 288 288 288 287 287 287 286 286 286 285 285 285 285 284 284 284 283 283 283 282 282 281 281 281 280 280 279 279 279 278 278 277 277 277 277 276 276 276 277 277 277 277 277 278 278 278 279 279 279 280 280 280 280 281 281 281 282 282 283 283 284 284 285
285 285 285 286 286 286 286 286 287 287 287 287 288 288 288 288 289 289 289 289 289 289 288 288 288 288 287 287 287 286 286 286 286 286 285 285 285 285 284 284 284 283 283 282 282 282 281 281 281 280 280 280 279 279 279 278 278 278 278 277 277 277 277 278 278 278 278 278 279 279 279 279 279 280 280 280 280 280 281 281 281 282 282 283 283 284
284 284 285 285 285 286 286 286 286 286 287 287 287 288 288 289 289 289 289 289 289 289 288 288 288 287 287 287 287 286 286 286 286 286 286 286 285 285 285 285 284 284 283 283 283 282 282 282 282 281 281 281 280 280 280 280 279 279 279 279 279 279 279 279 279 279 279 279 279 279 279 279 279 279 279 279 280 280 280 280 281 281 281 282 282 283
284 285 285 285 285 285 286 286 286 286 287 287 288 288 289 289 289 289 289 289 289 289 288 288 288 287 287 287 287 286 286 286 286 286 286 286 286 286 285 285 285 285 284 284 283 283 283 283 282 282 282 282 282 281 281 281 281 281 280 280 280 280 280 280 280 280 280 280 280 280 280 280 279 279 279 279 279 279 279 280 280 280 281 281 282 282
285 285 285 286 286 286 286 286 286 287 287 288 288 289 289 289 289 289 289 289 289 289 288 288 288 287 287 287 286 286 286 286 286 286 286 286 286 286 286 285 285 285 285 284 284 284 284 283 283 283 283 283 282 282 282 282 282 282 282 282 281 281 281 281 281 281 281 281 281 281 280 280 280 279 279 279 279 279 279 279 280 280 280 281 281 282
285 286 286 286 286 286 286 287 287 287 288 288 288 289 289 289 289 289 289 289 288 288 288 288 287 287 287 287 286 286 286 286 286 286 286 286 286 286 286 286 285 285 285 285 285 284 284 284 284 284 283 283 283 283 283 283 283 283 283 283 282 282 282 282 282 282 282 282 282 281 281 281 280 280 280 280 279 279 279 279 280 280 280 281 281 282
286 286 286 286 286 286 287 287 287 288 288 288 288 289 289 289 289 289 288 288 288 287 287 287 287 287 287 286 286 286 286 286 286 286 286 285 285 285 285 285 285 285 285 285 285 285 285 285 284 284 284 284 284 284 284 283 283 283 283 283 283 283 283 283 283 283 283 282 282 282 282 281 281 281 280 280 280 280 280 280 280 280 280 281 281 282
286 286 286 286 286 287 287 287 288 288 288 288 288 288 288 288 288 287 287 287 287 287 287 286 286 286 286 286 286 286 286 285 285 285 285 285 285 285 285 285 285 285 285 285 285 285 285 285 285 285 284 284 284 284 284 284 284 284 283 283 283 283 283 283 282 282 282 282 282 282 282 282 281 281 281 281 280 280 280 280 280 280 281 281 281 282
286 286 286 286 287 287 287 287 287 287 287 287 287 287 287 286 286 286 286 286 286 286 286 286 286 286 286 286 286 286 285 285 285 285 285 285 284 284 284 284 284 284 284 284 284 284 284 284 284 284 284 284 284 284 284 284 284 284 283 283 283 283 282 282 282 282 282 282 282 282 282 281 281 281 281 281 281 281 280 281 281 281 281 281 282 282
286 286 286 287 287 287 287 287 287 287 287 287 286 286 286 286 285 285 285 285 286 286 286 286 286 285 285 285 285 285 285 285 285 284 284 284 284 284 284 284 283 283 283 283 283 283 284 284 284 284 283 283 283 283 283 283 283 283 283 283 282 282 282 282 281 281 281 281 281 281 281 281 281 280 280 280 280 280 280 280 281 281 281 281 282 282
286 286 286 286 286 286 286 286 286 286 286 286 285 285 285 285 285 285 285 285 285 285 285 285 285 285 285 285 285 285 284 284 284 284 284 283 283 283 283 283 283 282 282 282 282 282 282 282 282 282 282 282 282 282 282 282 282 282 282 282 282 282 281 281 281 281 281 280 280 280 280 280 280 280 280 280 280 280 280 280 280 280 281 281 281 282
285 285 286 286 286 286 286 286 285 285 285 285 285 285 285 285 285 285 284 284 284 284 284 284 284 284 284 284 284 284 283 283 283 283 283 283 282 282 282 282 282 282 281 281 281 281 281 281 281 281 281 281 281 281 281 281 281 281 281 281 281 281 281 280 280 280 280 280 279 279 279 279 279 279 279 279 279 279 279 279 280 280 280 280 281 281
285 285 285 285 285 285 285 285 285 284 284 284 284 284 284 284 284 284 284 284 284 284 283 283 283 283 283 283 283 283 283 282 282 282 282 282 282 281 281 281 281 281 281 280 280 280 280 280 280 280 280 280 280 280 280 280 280 280 279 279 279 280 280 279 279 279 279 279 279 279 279 278 278 278 278 278 278 278 279 279 279 279 279 280 280 281
284 284 284 284 284 284 284 284 284 284 284 284 284 284 284 284 284 284 284 284 284 284 283 283 283 283 283 283 282 282 282 282 282 281 281 281 281 281 281 280 280 280 280 280 280 279 279 279 279 279 279 279 279 279 279 279 278 278 278 278 278 278 278 278 278 278 278 278 278 278 278 278 278 278 278 278 278 278 278 278 278 279 279 279 280 280
283 283 283 284 284 284 284 284 284 284 284 284 284 284 284 284 284 284 284 284 284 283 283 283 282 282 282 282 282 282 282 282 281 281 281 280 280 280 280 280 280 280 280 279 279 279 278 278 278 278 278 278 278 277 277 277 277 277 277 277 277 277 277 277 277 277 277 277 277 277 277 277 277 277 277 277 277 277 277 278 278 278 278 279 279 279
283 283 283 283 283 283 284 284 284 284 284 284 284 284 284 284 284 284 284 283 283 283 283 282 282 282 282 281 281 281 282 281 281 281 281 280 280 280 279 279 279 279 279 279 278 278 278 277 277 277 277 276 276 276 276 276 276 276 276 276 276 276 276 276 276 276 276 276 276 276 276 276 276 276 276 276 276 277 277 277 277 277 278 278 279 279
283 283 283 283 283 283 284 284 284 284 284 284 284 284 284 284 284 283 283 283 283 282 282 282 282 281 281 281 280 280 281 280 280 280 280 280 279 279 279 278 278 278 278 278 277 277 277 277 276 276 276 276 275 275 275 275 275 275 275 275 275 275 275 275 275 275 275 275 275 275 275 275 275 275 275 275 276 276 276 276 277 277 277 278 278 278
283 283 283 283 283 284 284 284 284 284 283 283 283 283 283 283 283 283 282 282 282 282 281 281 281 280 280 280 279 279 279 279 279 279 279 279 279 278 278 278 277 277 277 276 276 276 276 276 275 275 275 275 274 274 274 274 274 274 274 274 274 274 274 274 274 274 274 274 274 274 275 275 275 275 275 275 275 275 275 276 276 276 277 277 277 278
283 283 283 283 283 283 284 284 283 283 283 283 283 283 283 282 282 282 281 281 281 281 280 280 280 279 279 279 278 278 278 278 277 277 278 278 278 277 277 276 276 276 275 275 275 275 275 274 274 274 274 274 273 273 273 273 273 273 273 273 273 273 273 273 273 273 273 273 273 274 274 274 274 274 274 274 274 274 275 275 275 276 276 276 277 277
283 283 283 283 283 283 283 283 283 283 283 282 282 282 282 281 281 281 281 280 280 280 280 279 279 279 279 278 278 277 277 277 276 276 276 276 276 276 276 276 275 275 274 274 274 274 273 273 273 273 273 272 272 272 272 272 272 272 272 272 272 272 272 272 272 272 272 272 273 273 273 273 273 273 273 273 274 274 274 274 275 275 275 276 276 277
283 283 283 283 283 283 282 282 282 282 282 281 281 281 281 281 280 280 280 280 280 279 279 279 279 279 278 278 277 277 277 276 275 275 275 275 275 275 275 275 274 274 273 273 273 273 272 272 272 271 271 271 271 271 271 271 271 271 271 271 271 271 271 271 271 271 271 271 272 272 272 272 272 272 273 273 273 273 273 274 274 274 274 275 275 276
284 283 283 283 283 282 282 282 281 281 281 281 281 280 280 280 280 280 280 280 280 279 279 279 279 278 278 278 277 277 276 276 275 275 274 274 274 274 274 274 274 273 273 273 272 272 271 271 271 270 270 270 270 270 270 270 270 270 270 270 270 270 270 270 270 270 270 270 270 271 271 271 271 271 272 272 272 272 272 273 273 273 274 274 275 275
284 284 284 283 283 283 283 282 282 282 282 281 281 281 281 280 280 280 280 280 280 279 279 279 279 278 278 278 277 277 276 276 275 275 274 274 274 273 273 273 273 273 273 272 272 271 270 270 270 269 269 269 268 268 268 268 268 268 268 268 268 268 268 269 269 269 269 269 269 270 270 270 270 270 270 271 271 271 272 272 272 272 273 273 274 274
285 284 284 284 284 284 284 283 283 283 283 282 282 282 281 281 281 281 280 280 280 279 279 279 278 278 278 278 277 277 276 276 275 275 274 274 273 273 272 272 272 272 272 272 271 270 270 269 269 268 268 268 267 267 267 267 267 267 267 267 267 267 267 267 267 268 268 268 268 268 269 269 269 269 269 270 270 270 270 271 271 271 272 272 273 273
285 285 285 285 285 284 284 284 284 284 283 283 283 283 282 282 282 281 281 280 280 280 279 279 278 278 278 277 277 276 276 275 275 274 274 273 273 272 272 271 271 271 271 271 270 269 269 268 268 267 267 267 266 266 266 266 266 266 266 266 266 266 266 266 266 266 266 267 267 267 267 267 268 268 268 268 269 269 269 270 270 270 271 271 272 273
285 285 285 285 285 285 285 285 284 284 284 284 284 283 283 283 282 282 281 281 281 280 279 279 278 278 277 277 276 276 275 275 274 274 273 273 272 271 271 271 270 270 269 269 269 268 268 267 267 266 266 266 265 265 265 265 264 264 264 264 264 264 264 265 265 265 265 265 265 266 266 266 267 267 267 267 268 268 268 269 269 269 270 270 271 272
285 285 285 285 285 285 285 285 285 285 284 284 284 284 283 283 283 282 282 281 281 280 279 279 278 277 277 276 275 275 274 274 273 273 272 272 271 271 270 270 269 268 268 267 267 267 267 266 266 265 265 265 264 264 264 263 263 263 263 263 263 263 263 263 263 263 264 264 264 264 265 265 265 265 266 266 266 267 267 268 268 268 269 269 270 270
286 286 286 285 285 285 285 285 285 285 284 284 284 284 283 283 283 282 282 281 281 280 279 279 278 277 276 276 275 274 274 273 272 272 272 271 271 270 269 269 268 267 267 266 266 266 266 265 265 264 264 264 263 263 262 262 262 262 261 261 261 261 261 262 262 262 262 262 263 263 263 263 264 264 264 265 265 266 266 266 267 267 268 268 269 269
286 286 285 285 285 285 285 285 285 284 284 284 284 283 283 283 282 282 282 281 281 280 279 279 278 277 277 276 275 274 273 273 272 271 271 270 270 269 269 268 267 266 265 265 264 264 264 264 264 263 263 262 262 262 261 261 260 260 260 260 260 260 260 260 260 261 261 261 261 261 262 262 262 263 263 263 264 265 265 265 266 266 267 267 268 268
285 285 285 285 285 285 284 284 284 284 284 284 283 283 283 283 282 282 281 281 280 280 279 279 278 278 277 276 275 274 273 272 272 271 270 269 269 268 268 267 266 265 264 264 263 263 263 263 263 262 262 261 261 260 260 259 259 259 259 259 259 259 259 259 259 259 259 260 260 260 260 260 261 261 261 262 263 263 264 264 265 265 266 266 267 267
285 284 284 284 284 284 284 284 283 283 283 283 283 283 283 282 282 282 281 281 280 280 279 279 278 278 277 276 275 274 273 272 271 270 269 269 268 268 267 266 265 264 264 263 262 262 261 261 261 261 260 260 259 259 259 258 258 258 257 257 257 257 257 257 258 258 258 258 258 259 259 259 259 260 260 261 261 262 262 263 264 264 265 265 266 266
284 284 284 284 284 283 283 283 283 283 283 283 283 282 282 282 282 281 281 281 280 280 279 279 278 278 277 276 275 275 273 272 271 270 269 268 267 267 266 265 264 264 263 262 261 261 260 260 260 260 259 259 258 258 258 257 257 256 256 256 256 256 256 256 256 256 256 257 257 257 257 258 258 258 259 259 260 260 261 262 262 263 263 264 264 265
284 284 284 284 284 283 283 283 283 283 283 282 282 282 282 281 281 281 281 280 280 280 279 278 278 277 277 276 275 275 273 272 271 270 269 268 267 266 265 265 264 263 262 261 260 260 259 259 259 258 258 258 257 257 257 256 256 255 255 255 255 254 254 254 255 255 255 255 255 256 256 256 257 257 257 257 258 259 259 260 261 261 262 263 263 264
285 284 284 284 284 284 283 283 283 283 282 282 282 281 281 281 281 281 280 280 280 279 279 278 278 277 276 276 275 274 273 272 271 269 268 267 266 266 265 264 263 262 261 261 260 259 258 258 258 257 257 256 256 256 255 255 254 254 253 253 253 253 253 253 253 253 253 253 254 254 254 255 255 255 256 256 256 257 257 258 259 260 261 261 262 263
285 285 284 284 284 284 283 283 283 282 282 282 282 281 281 281 280 280 280 279 279 279 278 278 277 277 276 275 275 274 273 272 270 269 268 267 266 265 264 263 262 262 261 260 259 258 258 257 257 256 256 255 255 254 254 253 253 252 251 251 251 251 251 251 251 251 252 252 252 252 253 253 253 254 254 254 255 255 256 257 257 258 259 260 261 262
285 285 285 284 284 284 283 283 283 282 282 282 282 281 281 281 280 280 279 279 279 278 278 277 277 276 276 275 274 273 272 271 270 269 267 266 265 264 263 262 262 261 260 259 258 257 257 256 255 255 254 254 253 253 252 252 251 250 250 249 249 249 249 249 250 250 250 250 251 251 251 252 252 252 252 253 253 254 254 255 256 257 258 258 259 260
285 285 285 284 284 284 283 283 283 283 282 282 282 282 281 281 280 280 279 279 278 278 277 277 277 276 275 274 273 272 271 270 269 268 267 266 264 263 262 262 261 260 259 258 257 256 256 255 254 253 253 252 251 251 251 250 250 249 249 248 248 248 248 248 248 248 248 249 249 249 250 250 250 251 251 251 252 252 253 254 254 255 256 257 258 259
285 285 285 284 284 284 284 283 283 283 283 283 282 282 281 281 280 279 279 278 278 278 277 277 276 276 275 274 273 272 271 269 268 267 266 265 264 262 262 261 260 259 258 257 256 255 255 254 253 252 251 250 250 250 249 249 248 248 247 247 246 246 246 246 246 247 247 247 247 248 248 248 249 249 249 250 250 251 251 252 253 253 254 255 256 257
286 285 285 285 284 284 284 284 284 284 283 283 282 282 281 280 279 279 279 278 278 277 277 276 276 275 274 273 272 271 270 268 267 266 265 264 263 262 261 260 259 258 257 256 255 254 254 253 252 251 250 249 249 248 248 248 248 247 246 246 245 245 245 245 245 245 245 246 246 246 247 247 247 248 248 248 249 249 250 250 251 252 253 253 254 255
286 285 285 285 285 285 285 284 284 284 283 283 282 281 280 280 279 279 278 278 278 277 276 276 275 274 273 272 271 270 269 268 266 265 264 263 262 261 260 259 258 257 256 255 254 253 253 252 251 250 249 248 248 248 247 247 247 246 245 245 244 244 244 244 244 244 244 244 244 245 245 245 246 246 246 247 247 248 249 249 250 250 251 252 253 254
286 286 286 286 285 285 285 285 284 284 283 283 282 281 280 279 279 279 278 278 277 277 276 275 274 273 272 271 270 269 268 267 265 264 263 262 261 260 259 258 257 256 255 254 253 253 252 251 250 249 248 247 247 247 247 247 246 246 245 244 243 243 242 242 242 242 242 242 243 243 243 244 244 244 245 245 246 247 247 248 248 249 250 250 251 252
287 286 286 286 286 286 285 285 284 284 283 282 282 281 280 279 279 279 278 277 277 276 275 274 273 272 271 270 269 268 267 266 264 263 262 261 260 259 258 257 256 255 254 253 252 251 251 250 249 248 247 247 246 246 246 246 245 245 244 243 242 242 241 241 241 241 241 241 241 241 242 242 242 243 243 244 244 245 246 246 247 248 248 249 250 251
287 287 287 286 286 286 285 285 284 283 283 282 281 281 280 280 279 279 278 277 276 275 274 273 273 272 271 269 268 267 266 265 264 263 262 260 259 258 257 256 255 254 253 252 251 250 249 248 248 247 246 246 245 245 245 244 244 243 242 241 241 240 240 240 239 239 239 239 240 240 240 240 241 241 242 242 243 243 244 245 245 246 247 248 248 249
287 287 287 286 286 286 285 285 284 283 283 282 282 281 281 280 279 278 278 276 275 274 273 273 272 271 270 269 267 266 265 264 263 262 261 260 259 257 256 255 254 253 252 251 250 249 248 247 246 246 245 244 244 243 243 242 242 241 240 239 239 238 238 238 237 237 237 238 238 238 238 239 239 240 240 241 241 242 243 243 244 245 246 246 247 248
287 287 287 286 286 285 285 284 284 283 282 282 282 281 281 280 279 278 277 276 275 274 273 272 271 270 269 268 267 266 265 264 262 261 260 259 258 256 255 254 253 252 250 250 249 248 247 246 245 244 243 242 242 241 241 240 240 239 238 238 237 236 236 236 236 235 235 236 236 236 237 237 237 238 239 239 240 241 241 242 243 243 244 245 246 246
288 287 287 286 286 285 284 284 283 283 282 282 281 281 280 280 279 278 277 276 274 273 272 271 270 269 268 267 266 265 264 263 262 260 259 258 257 255 254 253 252 251 250 249 248 246 245 244 243 242 241 240 240 240 240 239 239 238 238 237 236 235 235 234 234 234 234 234 234 234 235 235 236 236 237 238 238 239 240 241 241 242 243 243 244 245
288 288 287 286 286 285 284 284 283 282 282 281 281 280 280 279 278 278 276 275 274 273 272 271 270 269 268 266 265 264 263 262 261 260 258 257 256 255 253 252 251 250 249 248 247 245 244 242 241 240 239 239 239 239 239 239 238 238 237 236 235 234 234 233 233 233 232 232 233 233 233 234 234 235 235 236 237 238 238 239 240 241 241 242 243 244
288 288 287 286 286 285 284 283 283 282 282 281 280 280 279 278 278 277 276 275 273 272 271 270 269 268 267 266 264 263 262 261 260 259 258 256 255 254 253 252 251 249 248 247 245 243 242 240 239 239 238 238 238 238 238 238 237 236 236 235 234 234 233 232 232 231 231 231 231 231 232 232 233 233 234 234 235 236 237 238 238 239 240 241 242 242
288 288 287 286 286 285 284 284 283 282 281 280 280 279 278 278 277 276 275 274 273 272 270 269 268 267 266 265 264 263 261 260 259 258 257 256 254 253 252 251 250 248 247 245 243 242 240 239 238 238 237 237 237 237 237 236 235 235 234 233 233 232 232 231 231 231 230 230 230 230 230 231 231 232 232 233 234 235 235 236 237 238 239 240 240 241
Height
10526 10525 10524 10523 10521 10518 10515 10513 10511 10509 10506 10503 10501 10500 10499 10498 10496 10496 10495 10495 10495 10495 10495 10495 10494 10494 10493 10492 10491 10491 10491 10490 10490 10490 10490 10490 10490 10490 10490 10490 10490 10490 10489 10489 10489 10489 10489 10489 10490 10490 10490 10490 10490 10490 10490 10490 10491 10490 10490 10489 10488 10488 10488 10488 10487 10487 10486 10486 10486 10486 10486 10486 10486 10485 10484 10484 10483 10483 10483 10482 10481 10481 10480 10480 10479 10478
10518 10516 10516 10515 10513 10511 10508 10506 10505 10503 10500 10497 10495 10494 10493 10492 10490 10489 10488 10488 10487 10487 10487 10486 10486 10485 10485 10483 10483 10482 10482 10481 10481 10481 10481 10481 10481 10481 10481 10481 10481 10481 10481 10481 10480 10480 10480 10480 10481 10481 10481 10481 10481 10481 10481 10482 10482 10483 10482 10481 10481 10480 10480 10480 10480 10480 10480 10480 10480 10479 10479 10479 10479 10479 10478 10478 10478 10477 10476 10476 10476 10475 10475 10474 10473 10473
10508 10508 10506 10506 10505 10504 10502 10499 10497 10495 10493 10491 10489 10488 10486 10485 10484 10483 10481 10481 10480 10480 10479 10478 10478 10477 10476 10475 10475 10474 10473 10473 10473 10473 10473 10473 10473 10473 10473 10473 10473 10473 10473 10473 10473 10472 10472 10472 10473 10473 10473 10473 10473 10473 10473 10474 10474 10475 10475 10474 10473 10473 10473 10473 10473 10473 10473 10473 10473 10472 10472 10473 10472 10472 10472 10472 10471 10471 10471 10471 10470 10470 10470 10469 10468 10468
10501 10500 10498 10497 10497 10496 10495 10493 10490 10488 10486 10484 10482 10480 10478 10477 10476 10475 10474 10473 10473 10471 10471 10470 10470 10470 10468 10468 10466 10466 10465 10465 10465 10465 10465 10465 10465 10465 10465 10465 10465 10465 10465 10465 10465 10465 10465 10465 10465 10465 10465 10465 10466 10466 10466 10466 10466 10466 10466 10466 10466 10466 10466 10466 10466 10466 10466 10466 10466 10466 10466 10466 10466 10466 10466 10466 10466 10466 10465 10465 10465 10465 10464 10464 10464 10463
10493 10491 10490 10490 10489 10488 10486 10485 10483 10481 10479 10477 10475 10473 10471 10469 10468 10467 10466 10466 10465 10464 10463 10462 10462 10461 10461 10460 10460 10459 10458 10457 10457 10457 10457 10457 10457 10457 10457 10458 10458 10458 10458 10458 10458 10458 10458 10458 10458 10458 10458 10458 10459 10459 10459 10459 10460 10460 10460 10460 10460 10460 10460 10460 10460 10460 10460 10460 10460 10460 10460 10460 10460 10460 10460 10460 10460 10460 10460 10460 10460 10460 10459 10459 10459 10458
10484 10483 10482 10481 10481 10479 10478 10476 10475 10473 10471 10469 10467 10465 10463 10461 10460 10458 10458 10457 10456 10455 10455 10454 10453 10453 10453 10453 10453 10452 10451 10451 10450 10450 10450 10450 10450 10450 10450 10451 10451 10451 10451 10451 10452 10452 10452 10452 10452 10452 10452 10453 10453 10453 10453 10453 10453 10453 10453 10453 10453 10453 10453 10453 10453 10453 10454 10454 10454 10454 10454 10454 10455 10455 10455 10455 10455 10455 10455 10455 10455 10455 10454 10454 10454 10454
10476 10474 10473 10472 10471 10470 10468 10467 10466 10464 10463 10461 10459 10457 10455 10453 10451 10450 10450 10449 10448 10448 10446 10446 10445 10445 10445 10446 10445 10445 10445 10445 10444 10444 10444 10444 10444 10444 10444 10444 10444 10445 10445 10445 10446 10446 10446 10446 10446 10446 10446 10446 10446 10447 10447 10447 10447 10447 10447 10448 10448 10448 10448 10448 10448 10448 10448 10448 10449 10449 10449 10449 10449 10449 10449 10450 10450 10450 10450 10450 10450 10449 10449 10449 10449 10449
10466 10465 10463 10463 10461 10460 10459 10458 10456 10455 10454 10453 10451 10450 10448 10445 10443 10442 10441 10441 10440 10440 10439 10438 10438 10438 10438 10438 10438 10438 10438 10438 10438 10438 10438 10438 10438 10438 10438 10438 10438 10438 10438 10439 10440 10440 10440 10440 10441 10441 10441 10441 10441 10441 10441 10441 10442 10442 10442 10442 10442 10443 10443 10443 10443 10443 10443 10443 10443 10444 10444 10444 10444 10444 10444 10445 10445 10445 10445 10445 10445 10445 10445 10445 10445 10445
10457 10456 10454 10453 10451 10451 10450 10448 10446 10446 10445 10444 10443 10442 10441 10438 10436 10435 10434 10433 10433 10432 10432 10431 10431 10430 10430 10431 10431 10431 10431 10432 10431 10431 10431 10431 10431 10431 10431 10431 10431 10431 10432 10432 10433 10433 10433 10434 10434 10435 10435 10435 10435 10435 10436 10436 10436 10436 10436 10437 10437 10437 10438 10438 10438 10438 10438 10438 10439 10439 10439 10439 10440 10440 10440 10440 10440 10440 10440 10440 10440 10440 10440 10440 10440 10440
10446 10446 10445 10443 10442 10441 10441 10440 10438 10436 10436 10435 10435 10434 10433 10432 10430 10428 10427 10426 10425 10425 10425 10425 10425 10424 10423 10423 10423 10424 10425 10425 10425 10425 10425 10425 10425 10425 10425 10426 10426 10426 10426 10426 10426 10426 10427 10428 10428 10428 10428 10428 10429 10429 10430 10430 10430 10431 10431 10431 10431 10432 10432 10433 10433 10433 10434 10434 10434 10435 10435 10435 10435 10435 10435 10435 10435 10436 10435 10435 10435 10435 10435 10436 10436 10436
10436 10435 10435 10433 10432 10432 10431 10430 10429 10428 10427 10426 10425 10425 10425 10425 10424 10423 10421 10420 10419 10418 10417 10416 10417 10417 10417 10416 10416 10416 10417 10418 10418 10418 10418 10418 10418 10419 10419 10420 10420 10420 10420 10420 10420 10420 10421 10421 10421 10422 10422 10423 10423 10423 10423 10423 10424 10425 10425 10425 10426 10426 10427 10428 10428 10428 10429 10430 10430 10430 10430 10430 10430 10430 10430 10431 10431 10431 10431 10431 10431 10431 10431 10431 10431 10432
10426 10426 10425 10424 10423 10422 10421 10420 10420 10419 10419 10418 10416 10416 10415 10415 10416 10416 10415 10414 10413 10411 10410 10408 10408 10409 10410 10410 10409 10409 10410 10410 10410 10410 10411 10411 10411 10412 10412 10413 10413 10414 10414 10415 10415 10415 10415 10415 10415 10416 10416 10416 10416 10417 10417 10418 10418 10418 10419 10420 10420 10420 10421 10421 10423 10423 10424 10424 10425 10425 10425 10425 10426 10426 10426 10426 10426 10426 10426 10426 10427 10427 10427 10427 10428 10428
10418 10416 10416 10415 10414 10413 10412 10411 10410 10410 10410 10409 10408 10407 10406 10406 10407 10408 10408 10407 10406 10406 10405 10402 10401 10400 10401 10402 10402 10402 10402 10402 10403 10403 10404 10404 10404 10405 10405 10405 10406 10407 10408 10408 10408 10408 10409 10409 10409 10409 10410 10410 10410 10411 10411 10411 10411 10412 10413 10413 10413 10415 10415 10416 10416 10417 10418 10419 10420 10420 10420 10421 10421 10421 10421 10421 10421 10422 10422 10423 10423 10423 10423 10423 10423 10424
10409 10408 10407 10406 10405 10405 10403 10403 10401 10401 10400 10400 10400 10399 10398 10398 10399 10399 10399 10398 10398 10399 10399 10397 10395 10393 10393 10394 10394 10395 10395 10395 10395 10395 10396 10396 10396 10397 10398 10398 10398 10400 10401 10401 10401 10402 10403 10403 10403 10403 10403 10404 10404 10405 10405 10405 10405 10406 10406 10406 10407 10408 10409 10410 10410 10411 10412 10413 10414 10415 10415 10415 10416 10416 10416 10416 10416 10417 10418 10418 10418 10418 10419 10419 10419 10420
10400 10400 10399 10398 10396 10396 10395 10394 10393 10392 10391 10390 10390 10390 10390 10390 10390 10390 10390 10390 10390 10390 10391 10391 10389 10387 10386 10386 10386 10386 10386 10387 10387 10387 10388 10388 10388 10390 10390 10391 10391 10391 10393 10395 10395 10395 10396 10397 10397 10396 10396 10397 10398 10398 10398 10398 10399 10400 10400 10400 10401 10401 10402 10403 10403 10405 10406 10406 10408 10409 10410 10410 10410 10410 10411 10411 10411 10412 10413 10413 10413 10414 10415 10415 10415 10415
10391 10391 10390 10389 10388 10387 10386 10385 10385 10383 10381 10381 10381 10381 10380 10380 10380 10380 10381 10381 10381 10381 10382 10382 10381 10380 10379 10378 10378 10378 10378 10378 10378 10378 10380 10380 10380 10381 10383 10383 10383 10383 10385 10386 10387 10388 10388 10390 10390 10390 10390 10390 10391 10391 10391 10391 10392 10393 10393 10394 10395 10395 10396 10396 10397 10398 10399 10400 10401 10402 10403 10404 10405 10405 10405 10406 10406 10406 10407 10408 10408 10410 10410 10410 10410 10411
10383 10383 10381 10380 10380 10378 10377 10376 10376 10375 10373 10372 10371 10371 10371 10371 10370 10370 10370 10371 10371 10371 10371 10373 10373 10372 10371 10370 10369 10368 10368 10368 10368 10368 10370 10371 10371 10371 10374 10375 10375 10375 10376 10378 10379 10380 10380 10381 10381 10382 10383 10383 10383 10384 10384 10385 10385 10385 10386 10386 10388 10389 10389 10390 10390 10391 10392 10393 10395 10396 10397 10398 10399 10400 10400 10400 10401 10401 10402 10403 10403 10404 10405 10406 10406 10406
10373 10373 10373 10372 10370 10369 10368 10368 10367 10365 10364 10363 10362 10361 10361 10361 10360 10360 10360 10360 10360 10360 10360 10361 10362 10363 10363 10363 10361 10359 10358 10359 10358 10356 10358 10360 10361 10362 10365 10366 10366 10366 10367 10369 10370 10371 10372 10373 10373 10374 10375 10375 10376 10376 10376 10377 10378 10378 10379 10380 10381 10382 10383 10383 10383 10384 10385 10386 10388 10389 10390 10391 10393 10393 10394 10395 10395 10395 10396 10397 10398 10398 10400 10400 10401 10401
10365 10364 10364 10363 10361 10360 10360 10359 10358 10356 10355 10353 10352 10351 10351 10350 10350 10350 10350 10350 10349 10350 10350 10351 10351 10352 10353 10354 10353 10352 10351 10351 10348 10346 10346 10348 10351 10352 10355 10357 10358 10358 10358 10360 10361 10361 10363 10363 10364 10365 10366 10367 10368 10369 10370 10370 10370 10371 10371 10372 10373 10375 10376 10376 10376 10377 10378 10380 10381 10382 10383 10385 10386 10387 10388 10388 10389 10390 10390 10391 10392 10393 10394 10395 10395 10396
10356 10355 10354 10353 10353 10351 10350 10348 10348 10347 10346 10343 10341 10341 10341 10340 10339 10339 10339 10338 10338 10338 10340 10340 10341 10341 10342 10344 10345 10345 10344 10343 10341 10338 10335 10336 10339 10341 10343 10346 10348 10348 10348 10350 10351 10353 10354 10354 10355 10356 10357 10358 10360 10360 10361 10362 10363 10363 10364 10365 10366 10368 10369 10369 10370 10370 10371 10373 10374 10375 10376 10378 10379 10380 10381 10382 10383 10383 10384 10385 10386 10387 10388 10389 10390 10390
10347 10346 10344 10343 10343 10343 10340 10337 10336 10336 10336 10333 10331 10330 10330 10328 10328 10328 10327 10326 10327 10328 10328 10328 10330 10331 10332 10334 10334 10334 10335 10336 10336 10331 10325 10325 10326 10330 10332 10336 10338 10339 10338 10339 10341 10343 10345 10345 10345 10346 10348 10349 10350 10351 10353 10353 10355 10355 10356 10357 10358 10359 10361 10361 10362 10363 10365 10366 10366 10368 10369 10370 10371 10373 10374 10375 10376 10377 10378 10379 10380 10381 10381 10383 10384 10385
10338 10336 10334 10333 10334 10333 10331 10328 10326 10325 10325 10323 10321 10320 10318 10316 10317 10316 10315 10315 10316 10316 10316 10316 10318 10319 10321 10323 10323 10323 10323 10326 10328 10325 10320 10316 10315 10316 10319 10324 10328 10328 10327 10328 10331 10333 10335 10335 10335 10336 10338 10340 10340 10341 10343 10345 10346 10347 10348 10349 10350 10351 10352 10353 10354 10355 10357 10358 10360 10361 10361 10363 10365 10366 10367 10368 10370 10370 10371 10372 10373 10375 10376 10377 10378 10379
10327 10326 10325 10323 10323 10322 10320 10318 10316 10315 10313 10312 10311 10308 10306 10305 10305 10305 10303 10303 10303 10305 10305 10305 10306 10308 10310 10311 10311 10311 10311 10312 10313 10315 10314 10310 10306 10304 10306 10311 10316 10317 10316 10317 10320 10323 10324 10324 10325 10326 10328 10330 10331 10332 10333 10335 10336 10338 10340 10341 10341 10343 10345 10345 10346 10348 10350 10351 10352 10353 10355 10356 10357 10358 10360 10361 10363 10364 10365 10366 10367 10368 10370 10371 10372 10373
10313 10314 10313 10312 10311 10310 10308 10307 10305 10303 10301 10300 10299 10297 10295 10294 10293 10293 10292 10291 10292 10293 10293 10293 10294 10295 10296 10296 10298 10299 10299 10298 10299 10301 10302 10300 10297 10295 10296 10299 10302 10304 10304 10305 10309 10312 10313 10312 10313 10315 10318 10320 10321 10322 10324 10325 10327 10328 10330 10331 10333 10335 10336 10337 10338 10340 10341 10343 10345 10346 10348 10349 10350 10351 10353 10355 10356 10357 10358 10359 10360 10361 10363 10365 10366 10367
10300 10300 10299 10298 10297 10296 10295 10293 10291 10289 10288 10286 10285 10283 10282 10281 10281 10280 10281 10281 10281 10281 10281 10281 10281 10281 10282 10283 10285 10286 10286 10285 10285 10287 10289 10287 10285 10285 10286 10288 10290 10291 10292 10293 10296 10300 10301 10301 10301 10303 10306 10309 10310 10311 10314 10316 10318 10319 10321 10323 10324 10326 10327 10328 10330 10331 10333 10335 10337 10339 10340 10342 10343 10345 10346 10347 10348 10350 10351 10353 10354 10355 10356 10358 10360 10361
10286 10285 10285 10283 10282 10280 10279 10277 10276 10274 10272 10271 10270 10268 10267 10266 10266 10266 10267 10268 10268 10268 10269 10269 10268 10268 10268 10271 10273 10274 10272 10271 10271 10273 10275 10274 10273 10272 10275 10277 10280 10281 10281 10281 10282 10285 10288 10288 10289 10291 10295 10297 10300 10301 10304 10306 10308 10310 10311 10313 10315 10316 10318 10320 10321 10323 10325 10327 10329 10331 10333 10335 10336 10337 10339 10340 10341 10343 10345 10346 10347 10348 10350 10352 10354 10356
10273 10272 10271 10270 10267 10265 10264 10262 10260 10259 10257 10256 10254 10253 10251 10250 10251 10251 10252 10252 10253 10255 10256 10256 10255 10254 10255 10258 10261 10261 10260 10259 10258 10259 10259 10260 10260 10260 10261 10263 10268 10271 10271 10269 10268 10269 10273 10276 10276 10278 10281 10285 10288 10290 10293 10295 10297 10299 10301 10304 10306 10308 10310 10311 10313 10315 10317 10319 10321 10323 10326 10327 10328 10330 10331 10333 10335 10336 10338 10339 10341 10342 10344 10346 10348 10350
10261 10260 10258 10256 10254 10251 10249 10248 10246 10244 10243 10241 10239 10237 10235 10235 10235 10236 10236 10235 10236 10239 10241 10242 10241 10241 10242 10245 10246 10247 10247 10248 10246 10245 10244 10245 10246 10247 10246 10248 10254 10259 10260 10257 10253 10254 10258 10263 10264 10265 10268 10273 10276 10279 10281 10284 10286 10288 10291 10293 10296 10298 10300 10303 10305 10306 10308 10311 10313 10316 10318 10320 10321 10323 10324 10326 10327 10329 10331 10333 10334 10336 10338 10340 10342 10343
10250 10248 10246 10243 10240 10238 10235 10234 10232 10230 10228 10226 10224 10222 10220 10219 10218 10219 10220 10220 10220 10221 10223 10225 10226 10226 10228 10231 10232 10233 10233 10234 10234 10232 10230 10230 10231 10232 10232 10235 10240 10245 10246 10244 10241 10241 10244 10248 10250 10253 10256 10260 10264 10267 10270 10272 10275 10278 10280 10283 10285 10288 10291 10293 10296 10298 10300 10302 10305 10307 10310 10312 10314 10316 10317 10318 10320 10321 10324 10326 10328 10330 10331 10333 10335 10337
10239 10236 10233 10230 10227 10224 10222 10220 10218 10216 10213 10211 10210 10208 10206 10204 10203 10203 10203 10205 10205 10205 10206 10207 10209 10210 10213 10215 10217 10218 10218 10220 10220 10220 10219 10218 10216 10215 10217 10222 10228 10231 10231 10230 10230 10230 10230 10231 10236 10240 10245 10248 10251 10254 10257 10260 10263 10266 10269 10272 10275 10278 10281 10285 10286 10289 10291 10293 10296 10299 10301 10304 10306 10308 10310 10311 10313 10315 10316 10319 10321 10323 10325 10327 10329 10331
10227 10225 10221 10218 10214 10211 10208 10206 10205 10202 10200 10198 10196 10194 10192 10190 10189 10188 10188 10188 10189 10190 10190 10191 10192 10194 10196 10200 10202 10203 10203 10205 10206 10208 10208 10205 10201 10199 10202 10208 10213 10215 10215 10216 10218 10218 10216 10216 10221 10228 10233 10236 10238 10240 10244 10248 10251 10255 10258 10261 10264 10267 10271 10275 10278 10280 10282 10285 10288 10290 10293 10296 10299 10301 10303 10304 10305 10307 10310 10311 10314 10316 10318 10320 10322 10324
10216 10213 10210 10206 10202 10199 10196 10193 10191 10189 10186 10185 10182 10180 10178 10176 10175 10174 10173 10173 10174 10175 10175 10176 10177 10178 10180 10183 10186 10188 10189 10191 10193 10195 10194 10191 10187 10185 10188 10195 10198 10199 10200 10203 10205 10205 10203 10203 10207 10213 10220 10223 10224 10226 10231 10235 10239 10243 10246 10250 10253 10256 10260 10264 10268 10271 10273 10276 10279 10282 10285 10288 10291 10294 10296 10296 10298 10300 10302 10305 10307 10310 10311 10313 10315 10317
10205 10201 10198 10195 10191 10188 10185 10181 10179 10176 10175 10172 10170 10167 10165 10163 10161 10160 10160 10159 10160 10161 10161 10162 10163 10165 10166 10168 10171 10173 10176 10178 10179 10180 10180 10178 10175 10173 10175 10180 10183 10185 10186 10190 10191 10192 10191 10193 10195 10200 10206 10209 10210 10213 10218 10223 10227 10231 10235 10239 10243 10246 10250 10254 10258 10261 10264 10267 10270 10274 10277 10281 10284 10286 10288 10290 10291 10293 10295 10298 10300 10303 10305 10306 10308 10311
10193 10189 10186 10183 10179 10176 10173 10170 10167 10165 10163 10160 10158 10156 10153 10151 10150 10148 10146 10146 10146 10148 10149 10150 10151 10152 10153 10155 10157 10159 10162 10165 10166 10166 10166 10165 10163 10161 10162 10166 10169 10171 10175 10177 10178 10179 10180 10181 10185 10188 10192 10195 10197 10200 10205 10210 10215 10220 10225 10229 10233 10236 10239 10243 10248 10251 10254 10258 10261 10266 10270 10273 10276 10280 10281 10283 10285 10286 10288 10291 10293 10296 10298 10300 10302 10304
10180 10177 10173 10170 10167 10164 10161 10158 10156 10153 10151 10149 10147 10145 10143 10141 10139 10137 10136 10135 10135 10135 10136 10138 10139 10141 10142 10143 10145 10146 10148 10151 10153 10153 10153 10152 10151 10150 10151 10153 10156 10159 10162 10165 10166 10167 10168 10171 10173 10176 10180 10183 10185 10188 10193 10198 10203 10208 10213 10218 10222 10225 10228 10232 10236 10241 10244 10248 10252 10256 10261 10264 10268 10273 10275 10276 10278 10280 10281 10284 10286 10289 10291 10293 10295 10298
10168 10164 10161 10157 10155 10152 10149 10146 10144 10141 10140 10138 10136 10134 10133 10131 10129 10128 10126 10125 10124 10124 10125 10126 10128 10130 10131 10132 10133 10135 10136 10138 10140 10140 10140 10140 10140 10141 10141 10142 10144 10147 10150 10152 10153 10156 10158 10161 10163 10166 10170 10173 10175 10176 10181 10186 10192 10198 10203 10206 10210 10214 10217 10221 10226 10230 10235 10239 10243 10246 10251 10255 10260 10263 10266 10268 10270 10272 10275 10277 10280 10282 10284 10286 10289 10291
10155 10151 10148 10145 10143 10140 10138 10135 10133 10130 10128 10126 10125 10123 10122 10121 10120 10118 10116 10115 10115 10114 10114 10115 10116 10118 10120 10121 10123 10124 10125 10126 10128 10128 10128 10128 10129 10130 10131 10131 10133 10136 10140 10140 10141 10144 10148 10151 10154 10157 10160 10163 10164 10166 10170 10175 10181 10186 10190 10194 10198 10203 10207 10211 10215 10220 10225 10228 10233 10237 10241 10246 10251 10254 10257 10260 10263 10265 10268 10270 10273 10275 10278 10280 10283 10286
10143 10140 10136 10133 10131 10128 10126 10123 10121 10120 10118 10116 10115 10113 10112 10111 10110 10108 10107 10106 10105 10105 10105 10105 10106 10108 10110 10111 10113 10114 10115 10116 10116 10116 10117 10118 10118 10119 10120 10120 10123 10126 10128 10130 10131 10134 10137 10141 10144 10146 10149 10152 10154 10156 10159 10163 10168 10173 10177 10182 10188 10193 10197 10201 10205 10210 10215 10219 10223 10228 10233 10238 10241 10245 10249 10251 10255 10257 10260 10263 10266 10269 10271 10274 10277 10280
10131 10128 10125 10121 10119 10116 10115 10113 10111 10109 10108 10106 10105 10104 10103 10101 10100 10098 10097 10096 10096 10096 10096 10096 10097 10098 10100 10101 10103 10103 10105 10105 10105 10106 10106 10108 10108 10109 10110 10110 10113 10115 10118 10121 10123 10125 10128 10131 10133 10136 10139 10142 10145 10146 10148 10152 10156 10161 10166 10172 10178 10183 10186 10190 10195 10200 10205 10210 10214 10219 10224 10228 10233 10237 10240 10243 10246 10250 10253 10255 10258 10261 10265 10268 10271 10273
10120 10116 10113 10111 10108 10106 10104 10102 10101 10100 10098 10097 10096 10095 10093 10091 10090 10088 10088 10087 10087 10087 10087 10087 10088 10089 10090 10091 10093 10093 10094 10095 10095 10096 10096 10097 10098 10100 10101 10101 10103 10105 10108 10110 10113 10116 10120 10121 10123 10126 10130 10133 10135 10136 10138 10141 10146 10151 10156 10163 10168 10172 10175 10180 10186 10191 10195 10200 10205 10210 10215 10220 10225 10228 10231 10235 10238 10241 10245 10248 10251 10255 10258 10261 10264 10267
10108 10106 10103 10100 10098 10096 10095 10093 10091 10090 10089 10088 10086 10085 10083 10082 10080 10079 10078 10078 10078 10078 10078 10079 10079 10080 10081 10082 10083 10084 10084 10085 10086 10086 10086 10087 10089 10091 10092 10093 10094 10096 10098 10100 10103 10108 10112 10113 10115 10118 10121 10123 10125 10126 10129 10132 10136 10142 10148 10153 10157 10161 10166 10172 10177 10182 10186 10191 10196 10201 10205 10211 10216 10220 10223 10226 10230 10234 10237 10241 10245 10248 10251 10255 10258 10261
10098 10096 10093 10091 10089 10087 10085 10084 10082 10081 10080 10078 10076 10075 10074 10073 10071 10070 10070 10070 10070 10070 10070 10070 10071 10071 10072 10073 10074 10075 10075 10075 10076 10077 10078 10078 10080 10081 10083 10084 10086 10088 10090 10091 10095 10099 10103 10105 10107 10109 10111 10114 10116 10118 10120 10124 10128 10133 10139 10144 10148 10153 10159 10164 10168 10172 10176 10181 10186 10192 10197 10202 10207 10211 10215 10219 10223 10226 10230 10235 10238 10241 10245 10248 10251 10255
10088 10086 10084 10082 10080 10078 10076 10075 10073 10072 10070 10069 10068 10066 10065 10063 10063 10063 10063 10063 10062 10061 10061 10061 10062 10063 10064 10065 10065 10065 10066 10066 10068 10068 10070 10070 10071 10073 10074 10076 10078 10080 10081 10084 10086 10090 10093 10097 10099 10100 10103 10106 10108 10110 10113 10116 10121 10126 10131 10135 10140 10146 10151 10154 10158 10163 10168 10173 10178 10183 10188 10193 10198 10203 10207 10211 10215 10219 10223 10228 10231 10235 10238 10241 10245 10248
10080 10077 10075 10073 10071 10070 10069 10067 10065 10063 10061 10060 10058 10057 10056 10055 10055 10055 10055 10055 10055 10054 10053 10053 10054 10055 10056 10056 10056 10057 10057 10058 10059 10060 10061 10062 10063 10065 10066 10068 10070 10071 10074 10076 10079 10081 10085 10088 10091 10093 10096 10098 10101 10103 10105 10109 10113 10118 10123 10128 10133 10136 10140 10143 10149 10156 10161 10165 10170 10175 10180 10185 10190 10195 10200 10204 10208 10212 10216 10220 10224 10228 10231 10236 10240 10243
10071 10069 10066 10065 10063 10061 10059 10058 10056 10055 10053 10051 10050 10048 10047 10047 10047 10048 10048 10048 10047 10046 10046 10046 10046 10047 10048 10048 10049 10049 10049 10050 10051 10052 10053 10054 10056 10058 10060 10061 10063 10065 10066 10069 10071 10074 10077 10080 10083 10086 10089 10091 10093 10095 10098 10102 10106 10110 10116 10121 10125 10129 10133 10137 10143 10148 10153 10156 10161 10166 10172 10177 10182 10187 10192 10196 10200 10204 10208 10213 10217 10221 10225 10229 10233 10236
10063 10061 10058 10056 10055 10053 10051 10050 10048 10046 10045 10043 10041 10040 10040 10040 10040 10040 10040 10040 10040 10039 10038 10038 10039 10040 10040 10041 10041 10041 10041 10042 10043 10045 10046 10047 10048 10051 10053 10054 10055 10057 10060 10062 10065 10067 10070 10073 10076 10079 10082 10085 10087 10088 10091 10095 10099 10103 10109 10113 10118 10121 10126 10130 10135 10139 10143 10148 10153 10158 10164 10169 10175 10180 10183 10188 10192 10196 10201 10206 10210 10214 10218 10222 10226 10230
10055 10053 10051 10049 10048 10046 10044 10042 10040 10038 10037 10036 10035 10033 10033 10032 10032 10032 10033 10033 10033 10032 10031 10031 10032 10033 10033 10033 10034 10034 10035 10035 10036 10038 10039 10040 10041 10043 10045 10046 10048 10050 10053 10055 10058 10061 10064 10067 10070 10073 10075 10078 10080 10081 10084 10088 10092 10097 10101 10106 10110 10114 10118 10122 10126 10131 10136 10141 10146 10151 10156 10161 10166 10171 10175 10180 10185 10190 10195 10199 10203 10208 10211 10216 10220 10224
10046 10045 10043 10041 10040 10038 10036 10035 10033 10031 10030 10029 10028 10026 10026 10025 10025 10025 10025 10026 10025 10025 10025 10025 10025 10026 10026 10026 10027 10027 10028 10029 10030 10031 10032 10033 10035 10036 10038 10040 10042 10044 10046 10049 10052 10055 10058 10061 10064 10066 10068 10071 10073 10075 10078 10082 10086 10091 10096 10100 10103 10107 10111 10115 10120 10125 10130 10134 10138 10143 10148 10153 10158 10162 10167 10173 10179 10183 10188 10192 10196 10201 10205 10210 10214 10217
10039 10037 10036 10035 10033 10031 10029 10028 10026 10025 10023 10023 10021 10020 10019 10019 10019 10019 10019 10019 10019 10018 10019 10019 10019 10020 10020 10020 10020 10021 10022 10023 10024 10025 10026 10027 10029 10030 10032 10034 10036 10038 10041 10043 10047 10050 10053 10056 10058 10061 10063 10065 10066 10069 10073 10076 10081 10086 10091 10094 10097 10100 10104 10108 10113 10118 10122 10127 10131 10136 10141 10146 10150 10155 10161 10166 10171 10176 10180 10185 10190 10194 10199 10203 10208 10211
10031 10030 10028 10026 10025 10023 10022 10021 10020 10018 10017 10016 10015 10014 10013 10013 10013 10013 10013 10012 10012 10012 10012 10013 10013 10014 10014 10015 10015 10016 10016 10018 10018 10019 10020 10021 10023 10025 10026 10028 10031 10033 10036 10039 10042 10045 10048 10051 10053 10056 10058 10060 10062 10065 10068 10072 10076 10081 10085 10088 10091 10095 10098 10103 10106 10111 10115 10120 10125 10130 10135 10140 10145 10150 10156 10160 10165 10169 10174 10179 10183 10188 10192 10197 10201 10205
10023 10022 10021 10020 10018 10016 10015 10014 10013 10012 10011 10010 10009 10008 10008 10007 10006 10006 10006 10006 10006 10006 10006 10007 10008 10008 10008 10009 10010 10010 10011 10012 10013 10014 10015 10016 10018 10020 10021 10023 10026 10028 10031 10034 10037 10040 10043 10045 10048 10050 10053 10055 10058 10061 10064 10067 10071 10075 10079 10081 10085 10089 10093 10096 10101 10105 10110 10114 10118 10123 10128 10133 10138 10143 10148 10153 10158 10163 10168 10173 10177 10181 10186 10191 10195 10199